Flag for China Weather past 2 weeks in Zhengzhou, Henan, China

Now
79 °F

Fog.


Feels Like: 82 °F
Forecast: 75 / 95 °F
Wind: 3 mph from Northeast

Location: Zhengzhou Airport

Current Time: Aug 2, 2014 at 1:47:28 AM

Latest Report: Aug 2, 2014 at 1:00 AM


Visibility: 2 mi

Pressure: 29.68 "Hg

Humidity: 79%

Dew point: 72 °F

Location of ZhengzhouLocation

Historic Weather in Zhengzhou — Graph

°F

Zhengzhou temperature yesterday

Maximum temperature yesterday: 90 °F (at 1:00 PM)
Minimum temperature yesterday: 77 °F (at 5:00 AM)
Average temperature yesterday: 83 °F

Past Weeks' High & Low Weather Summary

 TemperatureHumidityPressure
High100 °F (Jul 21, 3:00 PM)94% (Jul 18, 2:00 AM)29.89 "Hg (Jul 18, 2:00 AM)
Low68 °F (Jul 26, 3:00 AM)28% (Jul 26, 5:00 PM)29.53 "Hg (Jul 21, 4:00 PM)
Average83 °F64%29.71 "Hg
* Reported Midnight between Jul 17 and Jul 18 — Midnight between Aug 1 and Aug 2, Zhengzhou, Weather by CustomWeather, © 2014

Note: Actual official high and low records may vary slightly from our data, if they occured in-between our weather recording intervals... More about our weather records

Advertising

Zhengzhou weather history for previous 24 hours

 ConditionsComfort  
Time TempWeatherWind HumidityBarometerVisibility
12:00 AM
Aug 2
81 °FFog.6 mph79%29.71 "Hg2 mi
11:00 PM
Aug 1
81 °FFog.8 mph74%29.71 "Hg2 mi
10:00 PM82 °FFog.6 mph74%29.71 "Hg1 mi
9:00 PM82 °FHaze.8 mph74%29.68 "Hg1 mi
8:00 PM84 °FHaze.6 mph70%29.68 "Hg1 mi
7:00 PM86 °FHaze.8 mph62%29.65 "Hg1 mi
6:00 PM88 °FHaze.8 mph59%29.65 "Hg2 mi
5:00 PM90 °FHaze.10 mph52%29.65 "Hg2 mi
4:00 PM90 °FScattered clouds.10 mph52%29.65 "Hg2 mi
3:00 PM90 °FScattered clouds.10 mph55%29.65 "Hg2 mi
2:00 PM90 °FScattered clouds.8 mph52%29.68 "Hg2 mi
1:00 PM90 °FHaze.10 mph52%29.71 "Hg2 mi
12:00 PM88 °FHaze.10 mph52%29.71 "Hg2 mi
11:00 AM88 °FHaze.8 mph52%29.71 "Hg2 mi
10:00 AM84 °FHaze.8 mph66%29.71 "Hg2 mi
9:00 AM82 °FHaze.8 mph70%29.71 "Hg1 mi
8:00 AM79 °FFog.6 mph79%29.71 "Hg1 mi
7:00 AM79 °FFog.3 mph79%29.68 "Hg1 mi
6:00 AM77 °FFog.3 mph83%29.68 "Hg1 mi
5:00 AM77 °FFog.6 mph83%29.71 "Hg2 mi
4:00 AM79 °FFog.6 mph74%29.71 "Hg2 mi
3:00 AM79 °FFog.3 mph79%29.71 "Hg2 mi
2:00 AM79 °FFog.3 mph79%29.71 "Hg2 mi
1:00 AM79 °FFog.6 mph79%29.71 "Hg2 mi
Weather by CustomWeather, © 2014

See weather overviewHow to use our weather pages